CST,Max TemperatureF,Mean TemperatureF,Min TemperatureF,Max Dew PointF,MeanDew PointF,Min DewpointF,Max Humidity, Mean Humidity, Min Humidity, Max Sea Level PressureIn, Mean Sea Level PressureIn, Min Sea Level PressureIn, Max VisibilityMiles, Mean VisibilityMiles, Min VisibilityMiles, Max Wind SpeedMPH, Mean Wind SpeedMPH, Max Gust SpeedMPH,PrecipitationIn, CloudCover, Events, WindDirDegrees
2013-3-1,83,76,68,63,61,60,78,64,41,30.00,29.90,29.74,12,8,6,26,9,28,0.00,5,Rain,93
2013-3-2,80,74,67,61,57,54,78,59,36,30.04,29.94,29.78,12,8,6,33,10,34,0.00,6,Rain,93
2013-3-3,73,68,62,57,54,52,73,61,44,30.09,30.00,29.86,12,8,6,37,19,39,0.00,6,,99
2013-3-4,80,72,63,64,56,54,88,60,33,30.08,30.00,29.81,12,8,3,20,16,38,0.00,3,,101
2013-3-5,85,76,68,63,60,59,78,60,34,30.06,29.97,29.78,12,8,6,17,13,34,0.00,3,,105
2013-3-6,85,77,69,63,62,60,73,61,44,30.07,29.98,29.81,12,8,6,30,15,33,0.00,3,Rain,96
2013-3-7,83,76,68,62,60,59,71,60,40,30.06,29.96,29.79,12,8,6,20,17,36,0.00,3,Rain,87
2013-3-8,86,78,69,63,61,59,73,58,31,30.02,29.94,29.78,12,8,6,36,20,36,0.00,1,,96
2013-3-9,85,76,68,61,59,55,73,57,30,30.04,29.95,29.79,12,8,6,130,17,31,0.00,3,,100
2013-3-10,88,78,68,65,61,59,73,60,32,30.01,29.93,29.75,12,8,6,20,12,29,0.00,4,,99
2013-3-11,88,72,57,63,59,57,73,54,28,30.01,29.91,29.73,12,8,6,13,9,,0.00,1,,95
2013-3-12,87,78,69,63,60,55,73,57,31,30.03,29.94,29.74,12,8,6,15,10,25,0.00,2,,88
2013-3-13,84,76,68,61,58,55,73,56,30,30.06,29.96,29.80,12,8,6,28,17,32,0.00,3,,96
2013-3-14,81,74,67,59,57,52,73,58,35,30.05,29.96,29.80,12,8,6,18,15,34,0.00,4,,105
2013-3-15,80,73,66,59,56,52,73,57,37,30.05,29.95,29.78,12,8,6,30,18,39,0.00,3,,106
2013-3-16,86,76,66,57,54,46,64,44,25,30.03,29.95,29.79,12,8,6,18,14,30,0.00,1,,110
2013-3-17,90,78,66,66,60,55,83,59,25,30.06,29.98,29.79,12,8,6,16,9,,0.00,2,,162
2013-3-18,89,76,63,66,62,57,83,63,27,30.08,29.98,29.79,12,9,6,13,6,,0.00,3,,168
2013-3-19,90,77,64,70,64,59,100,66,30,30.05,29.96,29.79,12,8,6,17,7,,0.00,3,,137
2013-3-20,89,76,62,70,61,55,94,64,23,30.05,29.95,29.76,12,8,4,17,8,,0.00,4,Fog,210
2013-3-21,88,76,64,70,64,55,100,73,33,30.05,29.94,29.73,12,6,1,18,5,,0.08,5,Rain-Thunderstorm,135
2013-3-22,86,74,62,70,64,57,100,73,30,30.06,29.97,29.79,12,8,6,14,7,,0.00,5,Fog,160
2013-3-23,89,76,63,70,65,57,100,73,35,30.07,29.98,29.75,12,7,3,15,6,,0.00,4,,223
2013-3-24,88,76,64,70,65,59,94,73,39,30.04,29.93,29.71,12,6,4,13,5,,0.00,4,Fog,231
2013-3-25,86,75,64,70,66,59,100,73,42,30.02,29.91,29.70,12,7,3,13,4,,0.00,4,Fog,232
2013-3-26,88,78,69,63,59,55,78,54,25,30.03,29.94,29.74,12,8,6,33,12,33,0.00,2,,98
2013-3-27,84,76,68,61,57,50,73,53,26,30.10,29.98,29.79,12,8,6,28,16,40,0.00,5,,101
2013-3-28,82,74,67,61,59,57,78,61,37,30.07,29.99,29.81,12,8,6,22,17,34,0.00,2,,115
2013-3-29,82,75,68,64,58,52,78,57,40,30.07,29.98,29.80,12,8,6,23,18,38,0.00,2,,118
2013-3-30,87,77,67,63,57,50,78,53,27,30.05,29.97,29.78,12,9,6,17,15,30,0.00,2,,115
2013-3-31,89,79,69,64,63,61,78,62,33,30.02,29.92,29.73,12,8,6,20,14,32,0.00,2,,115